Wind_Speed
21 21 19 19 18 17 16 16 16 16 15 14 13 11 12 12 11 11 9 9 9 10 10 12 11 10 14 13 15 16 14 13 14 15 17 18 21 20 18 18 19 21 24
20 23 24 23 22 20 20 20 19 20 18 18 16 14 13 15 12 11 12 11 12 12 12 13 15 15 14 15 17 16 17 19 19 18 20 22 21 21 21 21 24 30 29
15 19 24 26 25 24 24 23 23 24 22 21 19 16 15 15 16 16 15 15 15 15 15 15 16 17 17 18 17 19 20 19 20 19 20 22 23 21 22 22 24 25 25
15 14 18 23 26 27 27 27 26 26 25 24 20 18 18 18 18 19 17 18 18 18 18 18 19 20 18 19 20 22 23 24 22 22 25 25 23 26 28 30 29 29 28
21 17 15 16 22 26 28 29 29 29 28 26 22 21 20 19 19 20 20 22 20 19 19 21 22 21 22 23 22 24 26 27 26 26 27 26 29 28 28 30 31 30 24
27 23 20 17 19 21 23 24 27 29 29 28 27 23 22 21 21 19 20 22 23 23 23 22 22 22 23 23 24 25 27 28 29 29 28 29 30 29 31 33 33 32 32
32 29 25 23 21 20 18 18 20 22 22 24 27 27 24 23 22 21 21 21 21 22 22 23 23 23 24 24 25 26 27 29 31 33 33 30 34 35 35 35 36 33 39
33 35 30 26 25 22 20 18 18 16 18 23 25 24 24 23 23 20 21 21 18 19 20 22 24 26 27 28 28 28 30 31 30 32 35 35 38 32 41 36 39 40 41
32 34 35 31 27 25 22 20 20 20 21 22 22 24 25 23 21 21 22 22 21 22 24 26 27 29 29 29 29 29 32 27 27 35 41 34 35 41 43 46 47 44 47
28 30 35 35 31 28 25 23 22 23 23 25 25 25 25 24 23 24 24 24 25 27 28 31 32 32 29 27 28 27 24 27 29 29 35 36 43 45 41 43 44 45 39
30 28 31 36 34 30 28 26 26 26 26 28 28 27 28 25 26 27 29 28 30 32 31 30 30 28 28 27 28 26 25 25 28 28 44 49 48 50 46 43 41 42 41
29 26 29 34 36 33 31 28 29 29 29 31 31 31 30 27 27 28 32 35 34 32 30 28 30 30 31 30 30 30 29 30 33 36 33 40 50 46 44 45 41 38 40
27 26 24 27 34 35 30 28 31 32 33 34 34 31 33 29 29 32 35 34 38 35 30 27 27 28 29 30 30 31 32 34 39 40 39 35 40 39 43 48 45 48 49
24 27 28 27 32 34 31 31 32 34 34 37 38 34 31 31 32 34 36 34 36 35 31 26 25 25 28 32 34 41 41 39 44 39 34 31 37 37 48 44 46 45 52
21 26 32 33 34 35 34 34 35 36 35 37 38 35 30 33 35 34 32 32 33 36 36 30 30 35 37 39 41 46 45 45 44 35 30 32 32 37 43 43 45 53 32
24 26 30 33 36 39 38 37 37 37 36 35 34 37 37 36 35 32 30 30 34 34 37 39 45 49 41 46 44 44 45 41 35 31 27 34 37 34 37 47 56 47 39
26 28 29 31 34 38 39 38 37 36 35 34 36 38 39 34 31 30 30 28 28 31 44 48 50 46 47 43 43 41 41 39 37 33 23 27 32 31 35 50 47 45 42
29 29 29 30 32 34 35 36 36 36 37 37 36 38 31 31 32 31 30 33 38 52 41 41 45 46 44 42 42 41 42 40 38 30 29 28 31 26 30 29 31 43 31
30 30 31 31 33 34 35 35 37 37 37 39 34 32 34 35 35 37 38 43 51 45 42 45 42 42 44 43 44 46 43 40 36 35 35 36 30 29 32 40 34 39 32
30 30 31 32 34 35 36 37 37 38 36 35 36 38 38 38 39 41 51 56 40 34 39 42 43 43 44 46 47 45 42 42 42 36 34 33 35 34 26 30 45 34 32
28 29 30 31 32 33 35 36 37 38 38 38 39 40 40 42 43 54 53 42 33 38 42 43 43 44 46 47 45 43 42 38 39 39 34 31 36 32 34 29 40 36 29
29 31 31 33 35 36 37 37 38 39 41 42 43 43 44 46 51 48 48 31 35 43 45 43 45 46 45 43 40 39 38 39 38 41 40 38 39 35 38 37 41 37 28
32 33 35 37 38 38 38 40 41 43 45 46 47 46 47 51 59 36 30 33 40 44 46 46 48 45 42 38 38 39 38 38 40 39 37 35 35 43 35 46 41 38 30
39 39 39 40 41 42 43 45 46 46 48 50 51 53 52 38 26 29 33 40 44 45 47 47 47 45 41 38 36 35 37 37 39 40 40 35 38 36 47 49 37 36 27
39 42 43 44 45 46 45 44 45 48 48 41 37 34 28 22 29 37 41 42 44 42 43 44 42 40 38 36 34 33 34 36 38 40 40 30 34 41 45 51 41 39 29
41 44 45 46 45 48 52 53 42 27 29 31 34 28 24 31 37 40 42 44 44 37 38 39 38 37 36 34 32 30 32 36 38 38 37 28 36 38 48 47 44 38 28
Wind_Direction
234 233 228 229 229 230 231 235 235 237 244 251 252 251 258 261 272 281 287 293 294 291 297 298 293 307 308 302 299 291 299 309 312 306 317 301 292 298 305 301 301 301 296
242 237 237 233 234 235 239 239 243 244 242 247 256 256 257 269 275 280 286 294 298 293 291 289 294 293 301 291 303 298 299 297 308 310 305 317 299 297 305 312 313 311 307
246 244 240 240 240 240 242 243 246 250 252 253 256 262 266 274 281 287 298 299 291 288 287 287 288 290 292 291 295 294 305 297 303 296 298 302 306 300 302 307 315 310 308
260 250 244 242 242 244 246 248 250 253 256 258 259 265 271 274 283 286 286 280 277 281 284 286 285 286 285 288 287 291 291 295 296 296 299 295 300 302 303 308 306 309 310
254 257 251 244 240 243 247 250 253 256 259 261 260 258 264 271 275 279 278 278 276 277 276 282 284 285 285 284 282 286 289 286 291 291 292 290 294 295 297 305 303 299 307
252 253 253 245 243 244 245 253 256 258 258 262 264 264 270 275 278 278 275 277 280 279 278 278 277 278 278 281 280 281 286 285 287 288 284 292 288 297 301 301 307 295 302
252 248 248 248 247 251 253 255 255 255 252 260 267 269 273 275 277 276 279 275 275 277 280 278 277 280 278 279 278 281 281 289 281 290 282 294 308 287 301 301 307 296 289
252 249 245 246 248 250 253 257 265 259 251 253 258 266 268 274 277 282 283 286 284 283 279 275 276 279 278 277 276 278 274 283 278 280 290 286 306 290 286 300 302 295 285
251 246 245 243 245 248 252 251 254 256 255 254 258 260 267 278 277 276 282 288 287 282 281 281 281 278 276 278 280 283 280 274 283 268 293 284 293 298 280 291 309 292 289
257 246 242 239 241 245 249 252 249 250 250 255 256 259 264 268 272 275 279 278 278 277 277 279 281 282 283 282 284 283 284 281 277 279 280 279 270 288 285 297 295 300 283
264 249 241 238 236 239 245 247 249 249 250 250 254 261 262 267 267 272 279 275 275 277 281 282 287 287 283 286 287 284 282 282 278 275 275 272 268 289 287 294 313 296 300
249 247 244 236 235 236 242 247 250 251 250 251 251 254 255 262 267 270 276 279 274 282 283 283 284 287 286 287 289 288 290 287 286 281 268 273 278 287 295 300 295 304 310
248 242 243 242 237 235 240 248 253 252 252 255 258 255 251 260 264 270 274 277 283 286 284 284 284 282 283 285 287 288 286 286 283 281 280 272 279 289 294 294 299 301 298
247 242 242 243 232 234 243 252 251 253 257 257 254 244 247 259 269 271 276 279 283 285 288 284 279 286 294 289 288 286 284 283 281 279 276 285 284 288 280 294 293 300 288
251 245 238 239 232 239 246 254 251 256 256 255 254 263 260 268 273 276 277 280 284 290 289 287 297 298 297 289 292 294 281 283 286 276 276 272 277 285 285 288 287 284 280
257 251 248 244 237 240 244 251 252 255 252 251 256 260 264 269 274 274 276 278 284 287 291 300 301 303 297 295 292 289 287 285 285 284 280 276 278 287 289 285 277 269 283
255 252 250 248 245 243 247 249 248 251 246 250 251 254 264 267 270 272 275 277 279 286 285 293 297 296 296 292 289 288 290 288 286 292 277 285 279 282 286 276 273 283 278
255 254 251 248 246 246 246 247 250 249 248 254 259 259 262 260 262 264 263 269 282 292 292 286 286 289 290 286 289 291 291 292 294 298 296 283 288 283 275 275 298 277 257
254 255 252 250 249 250 249 248 248 250 255 257 251 254 254 256 258 259 267 279 285 287 290 288 284 284 284 287 289 291 291 290 290 288 290 291 287 290 284 279 279 268 253
258 257 253 252 251 249 249 249 250 251 247 249 247 249 253 259 263 268 280 291 287 285 285 285 285 285 286 288 289 292 294 293 293 291 286 283 287 278 279 281 268 260 237
261 261 260 256 252 249 246 248 250 249 247 248 251 255 260 265 271 285 290 285 273 284 287 287 286 287 288 289 290 291 292 294 291 284 282 283 282 274 269 279 278 251 225
262 259 255 252 249 249 249 248 247 247 248 251 255 259 264 271 276 277 287 281 283 284 284 286 287 289 289 291 294 293 288 289 284 283 278 274 277 278 282 275 268 243 239
258 255 251 249 247 245 244 245 246 249 253 256 258 260 261 267 274 280 283 283 283 283 284 287 287 289 292 293 290 292 290 284 280 278 276 276 270 267 278 262 245 232 233
256 251 247 243 242 243 245 247 249 252 254 257 257 258 260 272 283 284 278 277 282 285 286 287 289 292 292 288 287 283 280 277 275 276 275 274 265 264 267 250 239 228 234
252 248 245 244 245 245 246 248 250 251 252 262 275 277 289 291 276 276 280 282 283 287 288 288 290 289 286 284 284 282 280 275 273 276 277 275 272 258 261 246 236 229 229
251 249 247 246 247 248 249 249 253 265 277 281 293 300 294 277 278 279 280 282 286 289 287 287 286 283 282 283 285 287 282 278 277 274 274 272 270 265 257 239 225 228 228
Height
3192 3194 3196 3197 3198 3199 3200 3201 3202 3202 3202 3203 3203 3204 3203 3203 3204 3203 3202 3201 3201 3201 3200 3199 3198 3197 3196 3195 3194 3193 3192 3191 3190 3190 3189 3188 3187 3186 3184 3183 3182 3180 3179
3188 3190 3192 3193 3194 3196 3197 3198 3199 3199 3199 3199 3200 3201 3202 3201 3201 3200 3199 3200 3199 3199 3198 3197 3196 3195 3194 3193 3192 3191 3189 3188 3187 3187 3185 3183 3182 3181 3180 3180 3178 3178 3176
3183 3185 3187 3189 3191 3192 3193 3194 3195 3195 3196 3197 3197 3198 3198 3198 3197 3197 3197 3197 3196 3195 3194 3193 3193 3192 3191 3190 3188 3187 3186 3184 3183 3181 3180 3178 3177 3175 3174 3173 3173 3171 3169
3180 3180 3181 3183 3185 3187 3188 3190 3191 3191 3192 3192 3193 3194 3195 3195 3195 3193 3193 3192 3191 3191 3190 3189 3189 3188 3187 3186 3185 3183 3181 3180 3178 3177 3175 3173 3172 3171 3169 3168 3166 3164 3163
3175 3177 3177 3179 3180 3180 3182 3184 3185 3186 3186 3188 3190 3191 3191 3190 3189 3189 3188 3186 3187 3186 3185 3184 3184 3184 3182 3181 3180 3178 3176 3174 3172 3171 3169 3167 3166 3164 3162 3161 3159 3159 3157
3169 3171 3172 3173 3174 3175 3176 3178 3179 3180 3182 3183 3184 3184 3184 3185 3184 3184 3184 3182 3181 3181 3180 3179 3177 3177 3177 3176 3175 3174 3172 3170 3168 3166 3163 3162 3162 3160 3158 3156 3153 3152 3151
3162 3164 3165 3167 3168 3169 3171 3172 3172 3173 3174 3176 3177 3178 3178 3178 3178 3178 3177 3177 3176 3174 3174 3173 3172 3171 3170 3170 3169 3169 3167 3165 3163 3160 3158 3156 3156 3154 3152 3150 3146 3144 3143
3155 3156 3158 3160 3161 3163 3165 3166 3166 3167 3168 3168 3170 3172 3172 3173 3173 3173 3171 3170 3169 3168 3168 3167 3166 3165 3163 3162 3161 3161 3160 3159 3156 3153 3152 3149 3147 3145 3144 3142 3139 3137 3136
3148 3149 3151 3153 3155 3156 3157 3159 3161 3162 3162 3163 3165 3166 3164 3165 3166 3166 3165 3164 3163 3162 3161 3160 3159 3157 3155 3154 3153 3152 3151 3150 3149 3146 3142 3140 3137 3137 3137 3136 3133 3131 3131
3137 3140 3142 3145 3147 3149 3151 3153 3154 3156 3157 3157 3158 3159 3158 3160 3159 3160 3160 3158 3157 3156 3154 3152 3152 3151 3149 3148 3147 3145 3143 3141 3140 3137 3133 3130 3128 3126 3129 3128 3126 3122 3116
3127 3130 3133 3137 3139 3142 3143 3146 3147 3148 3150 3151 3151 3151 3151 3152 3152 3152 3151 3152 3151 3148 3148 3147 3145 3143 3141 3139 3138 3137 3134 3133 3130 3130 3129 3124 3119 3116 3115 3116 3117 3114 3112
3120 3123 3126 3128 3133 3135 3137 3139 3140 3141 3143 3144 3144 3143 3144 3144 3145 3145 3144 3143 3141 3143 3142 3141 3139 3137 3134 3132 3130 3128 3127 3126 3125 3122 3121 3118 3114 3110 3108 3108 3107 3105 3101
3115 3117 3120 3122 3126 3129 3131 3133 3134 3135 3136 3136 3136 3137 3137 3137 3137 3138 3136 3136 3133 3134 3135 3135 3133 3131 3129 3127 3125 3123 3121 3118 3116 3114 3110 3109 3105 3103 3102 3100 3100 3096 3095
3109 3111 3113 3116 3118 3122 3124 3125 3126 3128 3128 3129 3127 3127 3124 3131 3127 3129 3129 3128 3126 3125 3125 3126 3125 3124 3121 3120 3117 3117 3113 3109 3106 3103 3102 3101 3098 3097 3094 3092 3089 3088 3086
3104 3104 3105 3108 3111 3114 3115 3117 3119 3120 3121 3121 3120 3118 3121 3121 3121 3122 3122 3121 3119 3115 3115 3118 3117 3116 3114 3112 3109 3106 3103 3100 3096 3096 3094 3093 3090 3088 3086 3084 3083 3080 3080
3097 3098 3098 3099 3102 3104 3106 3108 3110 3111 3112 3114 3116 3115 3115 3115 3116 3116 3115 3113 3112 3111 3106 3105 3104 3103 3101 3101 3097 3094 3091 3088 3087 3085 3084 3083 3082 3081 3077 3076 3074 3073 3073
3090 3091 3092 3093 3094 3096 3098 3100 3101 3103 3104 3106 3106 3107 3108 3108 3109 3108 3107 3106 3106 3103 3100 3097 3093 3091 3090 3088 3086 3083 3081 3079 3077 3076 3075 3074 3072 3071 3072 3071 3071 3071 3067
3083 3083 3084 3086 3087 3088 3090 3092 3093 3095 3095 3097 3098 3099 3099 3100 3099 3098 3097 3096 3095 3094 3089 3088 3086 3084 3081 3079 3077 3074 3071 3068 3066 3066 3066 3064 3065 3064 3063 3063 3064 3062 3062
3076 3077 3077 3078 3079 3081 3082 3083 3084 3086 3088 3090 3089 3090 3090 3089 3088 3087 3087 3086 3087 3085 3081 3078 3076 3074 3072 3069 3067 3065 3062 3059 3057 3058 3057 3055 3054 3054 3053 3053 3054 3055 3055
3068 3069 3070 3071 3072 3073 3074 3075 3077 3078 3079 3079 3079 3079 3078 3079 3078 3077 3077 3077 3076 3074 3072 3070 3068 3065 3063 3061 3057 3054 3051 3049 3048 3048 3049 3048 3046 3046 3046 3047 3046 3048 3047
3059 3060 3062 3063 3064 3065 3067 3067 3068 3069 3070 3071 3071 3071 3070 3069 3068 3068 3068 3066 3065 3064 3063 3060 3057 3055 3053 3050 3046 3044 3040 3038 3037 3037 3038 3038 3039 3039 3038 3037 3037 3040 3041
3052 3053 3054 3056 3057 3058 3059 3060 3061 3062 3062 3062 3061 3061 3059 3058 3057 3057 3057 3056 3055 3054 3052 3050 3047 3044 3042 3039 3036 3033 3032 3029 3027 3027 3026 3025 3025 3027 3027 3027 3029 3032 3034
3044 3045 3046 3047 3048 3049 3050 3051 3051 3052 3052 3052 3051 3050 3048 3046 3046 3046 3046 3045 3046 3044 3041 3039 3036 3033 3030 3029 3025 3022 3021 3020 3018 3016 3015 3014 3014 3016 3017 3018 3021 3023 3026
3037 3037 3037 3038 3038 3039 3040 3041 3041 3041 3041 3040 3038 3035 3034 3033 3035 3037 3035 3035 3034 3033 3029 3026 3023 3021 3019 3017 3015 3013 3010 3008 3006 3006 3006 3006 3007 3008 3009 3010 3015 3017 3020
3027 3028 3029 3030 3030 3031 3032 3032 3031 3030 3028 3027 3027 3026 3024 3024 3026 3025 3025 3023 3022 3020 3017 3014 3012 3011 3009 3006 3004 3002 2999 2998 2995 2996 2995 2997 2998 2999 2999 3003 3008 3011 3014
3019 3020 3021 3022 3023 3023 3021 3019 3019 3019 3019 3016 3015 3013 3014 3016 3016 3015 3013 3011 3010 3010 3006 3003 3002 3000 2999 2997 2994 2991 2989 2987 2986 2985 2985 2985 2986 2988 2989 2994 2999 3004 3009